Probability
0 0 0 0 0 0 0 0 0 0 0 0 0 0 0 0 0 0 0 0 0 0 0 0 0 0 0 0 0 0 0 0 0 0 0 0 0 0 0 0 0 1 2 3
0 0 0 0 0 0 0 0 0 0 0 0 0 0 0 0 0 0 0 0 0 0 0 0 0 0 0 0 0 0 0 0 0 0 0 0 0 0 0 0 0 0 1 2
0 0 0 0 0 0 0 0 0 0 0 0 0 0 0 0 0 0 0 0 0 0 0 0 0 0 0 0 0 0 0 0 0 0 0 0 0 0 0 0 0 0 0 1
0 0 0 0 0 0 0 0 0 0 0 0 0 0 0 0 0 0 0 0 0 0 0 0 0 0 0 0 0 0 0 0 0 0 0 0 0 0 0 1 0 0 0 0
0 0 0 0 0 0 0 0 0 0 0 0 0 0 0 0 0 0 0 0 0 0 0 0 0 0 0 0 0 0 0 0 0 0 0 0 0 0 0 0 0 0 0 0
0 0 0 0 0 0 0 0 0 0 0 0 0 0 0 0 0 0 0 0 0 0 0 0 0 0 0 0 0 0 0 0 0 0 0 0 0 0 0 0 0 0 0 0
0 0 0 0 0 0 0 0 0 0 0 0 0 0 0 0 0 0 0 0 0 0 0 0 0 0 0 0 0 0 0 0 0 0 0 0 0 0 0 0 0 0 0 0
0 0 0 0 0 0 0 0 0 0 0 0 0 0 0 0 0 0 0 0 0 0 0 0 0 0 0 0 0 0 0 0 0 0 0 0 0 0 0 0 0 0 0 0
0 0 0 0 0 0 0 0 0 0 0 0 0 0 0 0 0 0 0 0 0 0 0 0 0 0 0 0 0 0 0 0 0 0 0 0 0 0 0 0 0 0 0 0
0 0 0 0 0 0 0 0 0 0 0 0 0 0 0 0 0 0 0 0 0 0 0 0 0 0 0 0 0 0 0 0 0 0 0 0 0 0 0 0 0 0 0 0
0 0 0 0 0 0 0 0 0 0 0 0 0 0 0 0 0 0 0 0 0 0 0 0 0 0 0 0 0 0 0 0 0 0 0 0 0 0 0 0 0 0 0 0
0 0 0 0 0 0 0 0 0 0 0 0 0 0 0 0 0 0 0 0 0 0 0 0 0 0 0 0 0 0 0 0 0 0 0 0 0 0 0 0 0 0 0 0
0 0 0 0 0 0 0 0 0 0 0 0 0 0 0 0 0 0 0 0 0 0 0 0 0 0 0 0 0 0 0 0 0 0 0 0 0 0 0 0 0 0 0 0
0 0 0 0 0 0 0 0 0 0 0 0 0 0 0 0 0 0 0 0 0 0 0 0 0 0 0 0 0 0 0 0 0 0 0 0 0 0 0 0 0 0 0 0
0 0 0 0 0 0 0 0 0 0 0 0 0 0 0 0 0 0 0 0 0 0 0 0 0 0 0 0 0 0 0 0 0 0 0 0 0 0 0 0 0 0 0 0
0 0 0 0 0 0 0 0 0 0 0 0 0 0 0 0 0 0 0 0 0 0 0 0 0 0 0 0 0 0 0 0 0 0 0 0 0 0 0 0 0 0 0 0
0 0 0 0 0 0 0 0 0 0 0 0 0 0 0 0 0 0 0 0 0 0 0 0 0 0 0 0 0 0 0 0 0 0 0 0 0 0 0 0 0 0 0 0
0 0 0 0 0 0 0 0 0 0 0 0 0 0 0 0 0 0 0 0 0 0 0 0 0 0 0 0 0 0 0 0 0 0 0 0 0 0 0 0 0 0 0 0
0 0 0 0 0 0 0 0 0 0 0 0 0 0 0 0 0 0 0 0 0 0 0 0 0 0 0 0 0 0 0 0 0 0 0 0 0 0 0 0 0 0 0 0
0 0 0 0 0 0 0 0 0 0 0 0 0 0 0 0 0 0 0 0 0 0 0 0 0 0 0 0 0 0 0 0 0 0 0 0 0 0 0 0 0 0 0 0
0 0 0 0 0 0 0 0 0 0 0 0 0 0 0 0 0 0 0 0 0 0 0 0 0 0 0 0 0 0 0 0 0 0 0 0 0 0 0 0 0 0 0 0
0 0 0 0 0 0 0 0 0 0 0 0 0 0 0 0 0 0 0 0 0 0 0 0 0 0 0 0 0 0 0 0 0 0 0 0 0 0 0 0 0 0 0 0
0 0 0 0 0 0 0 0 0 0 0 0 0 0 0 0 0 0 0 0 0 0 0 0 0 0 0 0 0 0 0 0 0 0 0 0 0 0 0 0 0 0 0 0
0 0 0 0 0 0 0 0 0 0 0 0 0 0 0 0 0 0 0 0 0 0 0 0 0 0 0 0 0 0 0 0 0 0 0 0 0 0 0 0 0 0 0 0
0 0 0 0 0 0 0 0 0 0 0 0 0 0 0 0 0 0 0 0 0 0 0 0 0 0 0 0 0 0 0 0 0 0 0 0 0 0 0 0 0 0 0 0
0 0 0 0 0 0 0 0 0 0 0 0 0 0 0 0 0 0 0 0 0 0 0 0 0 0 0 0 0 0 0 0 0 0 0 0 0 0 0 0 0 0 0 0
0 0 0 0 0 0 0 0 0 0 0 0 0 0 0 0 0 0 0 0 0 0 0 0 0 0 0 0 0 0 0 0 0 0 0 0 0 0 0 0 0 0 0 0
Wind_Speed
3 2 1 1 0 2 4 6 8 10 12 10 8 9 10 12 13 15 15 15 15 15 15 16 16 16 17 17 16 17 17 17 17 18 17 17 17 16 16 15 16 15 15 15
2 1 2 3 2 2 3 6 9 11 10 7 8 10 12 13 15 15 15 16 17 17 17 17 17 17 17 17 17 17 17 18 17 17 17 17 17 16 16 15 15 15 15 15
2 1 6 6 4 3 5 8 9 11 11 11 12 13 14 14 14 14 16 17 18 18 17 17 17 17 17 17 17 17 17 17 17 17 17 16 17 17 16 15 14 15 15 15
4 4 6 5 3 2 6 9 7 8 10 11 12 13 14 11 11 14 16 17 17 17 18 17 17 17 17 17 17 16 17 17 16 16 17 16 16 16 15 14 13 12 13 14
5 7 6 5 3 2 7 10 4 6 10 12 13 14 9 8 12 14 16 16 16 17 17 17 17 16 17 17 17 17 17 16 16 16 16 16 16 16 14 13 13 12 11 13
6 9 7 3 6 1 6 5 3 6 10 12 13 12 10 13 15 15 15 15 15 16 17 16 16 16 16 17 17 17 16 16 16 15 15 15 15 15 13 12 12 12 11 11
8 9 4 7 6 3 6 7 5 7 9 11 11 11 13 15 14 15 15 16 16 16 15 15 15 15 16 16 16 16 16 16 15 15 15 14 14 12 11 10 10 10 11 10
6 7 1 8 4 4 5 4 5 7 8 10 11 12 13 14 14 15 15 16 16 15 15 14 14 14 15 16 15 15 15 15 16 15 13 12 12 11 9 8 9 9 8 9
4 3 5 4 2 1 2 5 5 7 8 9 11 12 13 13 14 14 15 15 15 15 16 15 14 14 16 15 15 15 15 15 14 14 12 11 10 10 8 6 6 6 6 6
6 5 3 4 4 3 3 4 5 6 7 8 11 12 13 13 13 14 14 14 14 15 15 15 15 15 15 15 14 14 15 14 13 12 11 10 8 7 6 5 5 5 4 5
8 6 4 6 5 4 4 4 4 5 6 8 10 11 12 12 13 13 13 13 13 14 15 15 15 15 15 14 14 14 14 13 12 11 10 8 7 6 6 5 4 5 4 4
7 3 5 2 3 4 4 4 4 5 6 7 8 11 12 12 12 12 13 13 13 14 15 15 15 15 14 13 14 13 12 11 9 9 8 7 7 5 2 4 3 4 5 6
4 2 3 4 4 4 4 3 3 4 6 8 8 9 11 11 11 12 13 13 14 14 14 14 14 14 14 14 14 13 12 11 9 8 7 7 6 6 4 1 3 3 3 4
5 5 5 6 5 5 4 3 3 4 5 6 8 9 10 11 12 13 13 13 14 14 13 13 14 14 14 14 13 13 12 10 9 7 7 7 6 6 4 4 2 0 1 2
9 9 6 5 6 6 5 4 5 5 5 6 7 8 10 11 12 13 12 12 13 13 13 13 13 14 14 14 13 12 10 8 8 8 7 6 6 5 5 4 3 1 1 2
10 10 8 8 8 7 7 6 6 5 5 6 7 8 10 11 12 12 11 12 13 13 13 13 13 14 14 13 13 10 8 9 10 8 7 6 6 5 5 4 3 2 1 1
11 13 12 11 10 9 7 6 5 4 5 5 7 9 10 11 11 12 12 12 12 11 11 11 13 14 13 12 12 9 8 8 9 8 6 6 6 5 4 4 3 3 2 2
12 11 10 10 9 8 7 6 4 4 4 5 6 8 9 10 12 12 13 13 12 11 11 12 14 15 13 12 11 9 8 7 7 7 6 6 6 5 4 4 3 3 2 2
10 10 9 9 8 7 6 5 4 3 3 4 6 7 8 9 10 11 11 12 11 12 13 15 16 14 13 13 14 8 8 8 7 6 6 5 5 6 5 5 4 4 3 2
9 10 10 9 8 7 6 5 5 4 3 3 5 6 8 9 9 10 11 9 7 9 13 14 14 12 12 12 15 9 8 8 8 7 6 6 6 5 5 4 4 4 3 3
8 10 10 10 9 8 7 6 5 4 3 4 5 6 7 8 8 9 9 8 8 11 13 12 9 10 11 13 13 8 8 8 7 7 6 6 6 5 5 4 4 4 4 4
7 9 10 9 9 8 8 7 6 5 4 4 5 5 7 7 8 8 7 6 8 10 10 8 8 12 15 15 8 7 7 8 7 6 6 6 5 5 5 5 5 5 5 4
6 8 9 9 9 8 8 8 8 6 5 5 5 5 6 6 6 7 7 7 8 10 9 7 11 15 18 10 7 7 7 7 7 6 6 6 6 5 4 5 5 5 5 5
7 7 8 7 8 8 9 9 8 6 6 5 5 3 4 5 4 4 5 5 6 9 8 6 9 14 13 6 6 7 6 6 6 6 6 5 5 5 5 5 5 5 5 6
7 8 8 8 9 8 8 8 8 8 8 5 5 3 3 3 4 5 5 7 7 7 7 6 7 10 8 7 7 7 6 6 7 7 5 5 5 4 4 4 5 4 4 5
8 8 8 9 8 6 6 7 7 7 6 5 4 2 1 1 3 3 4 5 7 6 6 6 7 7 7 7 7 7 7 7 6 6 6 5 6 5 5 5 6 5 5 5
9 9 7 8 8 8 7 7 7 7 6 6 4 3 2 1 2 3 4 4 5 5 5 6 6 6 6 7 7 7 6 6 7 6 6 6 5 5 5 5 4 4 4 5
Wind_Direction
35 32 313 332 4 5 358 348 326 330 323 339 349 331 324 321 320 320 321 323 324 322 319 316 313 313 310 309 308 307 304 300 298 297 294 290 286 282 277 274 269 263 257 252
188 170 269 243 231 279 326 326 321 316 326 8 332 318 319 322 323 322 323 325 323 320 318 316 315 313 312 309 308 307 302 300 299 298 295 291 287 283 279 272 270 268 261 255
288 189 262 233 207 257 310 326 321 318 332 336 323 325 324 322 320 324 325 323 321 319 317 316 314 314 311 310 309 305 302 301 300 297 294 292 290 287 282 276 271 266 261 255
295 270 278 69 93 295 305 310 313 310 321 328 323 323 313 314 327 326 323 321 320 319 318 316 316 315 314 312 309 306 303 302 301 298 295 293 290 287 284 279 272 267 263 259
284 286 285 148 175 278 309 308 326 318 323 324 326 312 309 11 343 327 322 320 318 318 317 317 317 320 317 312 310 308 306 306 304 301 299 295 290 287 285 280 273 265 260 258
269 291 299 89 119 94 283 280 76 324 321 324 322 315 338 351 334 327 324 321 320 319 317 318 321 321 315 311 310 309 310 308 305 302 298 294 291 289 285 279 273 267 259 254
269 277 292 106 128 209 284 6 5 325 322 320 323 316 321 326 327 325 322 321 321 320 319 320 320 318 313 311 311 313 312 308 304 301 299 293 290 287 284 279 274 266 263 254
266 272 315 128 172 267 341 357 322 320 321 322 317 315 320 325 324 323 323 324 326 323 321 321 322 320 315 313 316 314 310 306 305 305 302 300 298 293 287 280 273 264 257 253
277 333 84 167 224 345 328 302 317 319 324 321 317 321 324 324 324 324 324 326 326 324 322 323 326 324 318 319 319 316 312 310 310 309 306 304 300 299 295 281 272 267 256 252
254 247 206 206 224 232 252 284 308 313 316 318 318 322 324 324 323 324 326 327 327 326 324 324 328 325 321 321 322 317 315 315 313 312 312 312 308 303 299 294 286 280 266 257
251 259 234 211 219 230 234 257 282 300 314 318 319 320 323 321 323 325 325 327 327 326 323 325 328 324 324 327 324 320 319 317 316 318 321 318 315 315 314 308 301 290 287 273
266 237 235 190 162 199 223 246 278 299 307 315 319 320 321 321 323 323 323 325 327 327 326 326 326 324 328 330 326 323 320 321 322 326 327 323 321 321 303 291 292 273 277 290
255 201 194 137 161 186 215 240 265 282 302 313 319 320 320 320 321 323 323 328 330 329 325 326 327 327 331 332 327 325 322 324 325 329 327 328 329 328 334 316 229 243 261 270
195 186 191 196 192 189 211 225 256 276 297 310 317 320 321 321 322 325 328 330 331 326 326 330 330 330 333 331 327 326 325 326 325 329 328 330 332 329 334 340 342 13 182 226
202 207 212 183 181 183 202 220 248 274 301 311 317 322 326 324 324 325 328 331 330 326 332 334 333 333 333 330 328 327 327 333 333 330 331 333 335 337 344 348 350 3 78 122
202 205 202 195 198 198 209 226 253 285 305 312 320 327 327 323 322 324 332 336 332 331 333 333 334 333 332 330 329 326 328 331 326 326 334 342 347 348 351 354 357 10 49 58
198 202 205 208 207 208 216 230 254 285 301 311 322 324 324 325 326 332 337 337 332 328 335 340 337 333 331 331 331 328 328 331 323 326 348 352 349 350 353 357 8 17 35 50
213 215 205 205 204 202 206 215 228 252 282 308 314 320 326 329 330 333 334 331 330 334 348 347 342 332 331 336 333 327 326 329 338 347 352 356 347 351 359 8 21 28 44 91
212 207 195 189 187 188 192 199 212 233 263 294 309 319 324 326 329 330 331 328 333 340 346 342 334 329 336 339 334 324 327 334 340 348 356 356 351 10 19 23 23 27 35 40
207 198 189 182 180 183 185 187 200 218 242 277 298 310 320 328 330 330 329 324 348 350 336 332 330 336 338 337 331 326 332 337 341 347 356 3 11 18 24 30 27 26 33 46
209 200 193 188 183 186 189 190 202 218 236 264 288 306 318 323 326 329 326 329 351 355 336 324 332 343 339 329 317 327 338 342 345 347 354 360 7 19 28 34 37 37 41 50
223 209 202 196 191 192 191 193 203 215 231 254 278 299 311 317 324 327 327 340 343 354 334 331 346 345 334 324 326 337 341 343 345 349 353 355 4 17 26 31 39 40 40 47
250 227 212 202 201 202 198 201 203 210 224 246 271 292 309 320 323 323 327 353 344 342 326 340 346 337 329 327 338 341 346 347 345 347 349 348 357 13 23 30 38 37 40 48
269 244 228 211 203 206 209 210 206 211 218 230 244 266 289 299 309 330 338 340 344 332 327 350 340 331 324 336 346 345 348 348 345 345 347 350 357 10 24 29 36 42 47 52
278 254 236 219 211 212 210 211 210 210 218 224 229 222 252 296 317 330 331 334 347 333 333 348 340 329 335 352 349 347 348 351 344 338 345 354 0 9 22 30 34 41 48 52
276 255 240 229 226 222 210 209 216 211 211 217 218 205 234 285 306 315 325 337 345 340 339 348 349 344 351 352 351 351 349 345 344 349 355 359 5 11 23 28 33 36 46 57
266 253 239 233 227 222 218 212 214 214 212 211 207 186 194 250 303 330 337 344 346 351 355 356 355 353 352 351 351 353 353 350 351 354 355 0 2 2 14 20 24 30 39 54